Location: ???????
(38.3360°N, 23.6977°E)
Time: 03:03:51
(UTC+00:00)

H-2A R/B - Visible Passes

Search period start: 19 February 2026 00:00
Search period end: 01 March 2026 00:00
Orbit: 298 x 31030 km, 28.0° (Epoch: 18 February)

Date Brightness Start Highest point End Pass type
(mag) Time Alt. Az. Time Alt. Az. Time Alt. Az.
20 Feb 7.0 00:37:49 10° SW 03:22:13 32° SW 08:17:38 10° SE visible
20 Feb 8.6 19:44:18 10° ESE 00:36:04 45° ESE 01:59:17 10° E visible
21 Feb 8.0 21:29:42 10° S 04:49:09 72° S 05:24:21 10° E visible
22 Feb 9.2 21:09:43 10° E 21:39:38 11° E 22:04:13 10° E visible
23 Feb 6.8 01:08:11 10° SW 03:29:44 27° WSW 08:40:25 10° SE visible
23 Feb 8.2 19:26:58 10° SE 01:00:56 52° ESE 02:24:56 10° E visible
24 Feb 7.7 21:51:45 10° SSW 05:19:42 73° S 05:47:43 10° ESE visible
25 Feb 9.0 20:16:29 10° E 21:59:59 18° E 22:59:12 10° ENE visible
26 Feb 6.6 01:41:56 10° SW 03:41:48 22° WSW 09:02:39 10° SSE visible
26 Feb 7.9 19:21:49 10° SE 01:27:03 59° SE 02:49:38 10° E visible
27 Feb 7.4 22:14:38 10° SSW 05:47:47 72° SSW 06:10:35 10° ESE visible
28 Feb 8.9 19:43:08 10° E 22:20:30 24° E 23:34:00 10° ENE visible
